890  
ASUS45 KCYS 111510  
RWRWY  
 
WYOMING REGIONAL WEATHER ROUNDUP  
NATIONAL WEATHER SERVICE CHEYENNE WY  
900 AM MDT THU AUG 11 2022  
 
NOTE: "FAIR" INDICATES FEW OR NO CLOUDS BELOW 12,000 FEET  
WITH NO SIGNIFICANT WEATHER AND/OR S TO VISIBILITY
.  
 
WYZ001-111600-   
..YELLOWSTONE NATIONAL PARK
 
 
 
CITY SKY/WX TMP DP RH WIND PRES REMARKS
 
LK YELLOWSTONE N/A 61 53 75 CALM 30.49R  
W YELLOWSTONE NOT AVBL  
 

 
WYZ002>013-054>058-071-098>099-111600-   
..NORTHERN WYOMING
 
 
 
CITY SKY/WX TMP DP RH WIND PRES REMARKS
 
JACKSON PTSUNNY 64 55 72 CALM 30.41R  
CODY CLOUDY 71 54 54 N6 30.24R  
GREYBULL MOSUNNY 78 58 49 VRB5 30.11R  
WORLAND MOSUNNY 78 52 40 N3 30.15R  
SHERIDAN MOSUNNY 79 60 52 NW14 30.14R  
BUFFALO MOSUNNY 77 59 53 N15 30.20R  
GILLETTE MOSUNNY 81 53 37 SW8 30.15R  
HULETT MOSUNNY 88 50 27 S16G22 30.13S  
NEWCASTLE SUNNY 82 46 28 SE16 30.16F  
 

 
WYZ014>020-022>026-101>103-111600-   
..CENTRAL WYOMING
 
 
 
CITY SKY/WX TMP DP RH WIND PRES REMARKS
 
BIG PINEY PTSUNNY 65 56 72 NW7 30.45S  
PINEDALE PTSUNNY 61 54 77 NE6 30.47S  
DUBOIS CLOUDY 68 45 42 W10G18 30.41R  
LANDER PTSUNNY 75 47 36 NE7 30.27R  
RIVERTON PTSUNNY 76 50 40 NW12 30.26R  
CASPER SUNNY 79 45 29 S22G32 30.22R  
DOUGLAS SUNNY 79 53 40 S9 30.20S  
 

 
WYZ021-027>030-104>119-111600-   
..SOUTHERN WYOMING
 
 
 
CITY SKY/WX TMP DP RH WIND PRES REMARKS
 
EVANSTON MOSUNNY 61 54 77 N3 30.43S  
KEMMERER NOT AVBL  
FORT BRIDGER PTSUNNY 67 53 59 W3 30.46R  
ROCK SPRINGS MOSUNNY 68 55 63 CALM 30.40S  
DIXON MOSUNNY N/A N/A N/A E9 30.42F  
RAWLINS SUNNY 75 47 36 W13G24 30.40R  
SARATOGA SUNNY 73 45 35 W5 30.44S  
LARAMIE NOT AVBL  
CHEYENNE SUNNY 73 55 53 SW7 30.33R  
TORRINGTON SUNNY 78 56 46 SE8 30.19S  
PINE BLUFFS SUNNY 75 52 43 S13G18 30.27F  
 

 
 
 
CLICK HERE TO GO TO PREVIOUS BULLETINS.

The Nexlab WY Page Main Text Page